Flag for U.S.A. Weather past 2 weeks in Everett, Washington, U.S.A.

Now
58 °F

Passing clouds.


Feels Like: 58 °F
Forecast: 59 / 76 °F
Wind: No wind

Location: Snohomish County Airport

Current Time: Aug 4, 2015 at 5:01:43 AM

Latest Report: Aug 4, 2015 at 3:53 AM


Visibility: 10 mi

Pressure: 29.98 "Hg

Humidity: 81%

Dew point: 52 °F

Location of EverettLocation

Historic Weather in Everett — Graph

°F

Everett temperature yesterday

Maximum temperature yesterday: 75 °F (at 12:53 PM)
Minimum temperature yesterday: 58 °F (at 4:53 AM)
Average temperature yesterday: 65 °F

Past Weeks' High & Low Weather Summary

 TemperatureHumidityPressure
High87 °F (Jul 30, 4:53 PM)93% (Jul 25, 12:53 AM)30.30 "Hg (Jul 25, 12:53 AM)
Low55 °F (Jul 22, 5:53 AM)24% (Jul 31, 3:53 PM)29.88 "Hg (Aug 3, 12:53 AM)
Average65 °F64%30.05 "Hg
* Reported Jul 20 3:53 AM — Aug 4 3:53 AM, Everett, Weather by CustomWeather, © 2015

Note: Actual official high and low records may vary slightly from our data, if they occured in-between our weather recording intervals... More about our weather records

Advertising

Everett weather history for previous 24 hours

 ConditionsComfort  
Time TempWeatherWind HumidityBarometerVisibility
3:53 AM
Tue, Aug 4
58 °FPassing clouds.No wind81%29.98 "Hg10 mi
2:53 AM59 °FOvercast.No wind78%29.98 "Hg10 mi
1:53 AM58 °FPassing clouds.3 mph84%29.97 "Hg10 mi
12:53 AM60 °FOvercast.7 mph75%29.96 "Hg10 mi
11:53 PM
Mon, Aug 3
60 °FClear.5 mph75%29.96 "Hg10 mi
10:53 PM61 °FMostly cloudy.9 mph78%29.95 "Hg10 mi
9:53 PM61 °FClear.7 mph78%29.95 "Hg10 mi
8:53 PM61 °FSunny.13 mph78%29.93 "Hg10 mi
7:53 PM66 °FSunny.9 mph68%29.91 "Hg10 mi
6:53 PM66 °FSunny.10 mph68%29.91 "Hg10 mi
5:53 PM69 °FSunny.12 mph61%29.91 "Hg10 mi
4:53 PM70 °FSunny.10 mph57%29.92 "Hg10 mi
3:53 PM73 °FSunny.7 mph50%29.92 "Hg10 mi
2:53 PM71 °FSunny.9 mph53%29.93 "Hg10 mi
1:53 PM74 °FSunny.8 mph46%29.92 "Hg10 mi
12:53 PM75 °FSunny.6 mph45%29.92 "Hg10 mi
11:53 AM69 °FSunny.3 mph57%29.93 "Hg10 mi
10:53 AM67 °FSunny.5 mph61%29.93 "Hg10 mi
9:53 AM65 °FSunny.6 mph61%29.93 "Hg10 mi
8:53 AM63 °FSunny.3 mph68%29.93 "Hg10 mi
7:53 AM61 °FSunny.5 mph70%29.93 "Hg10 mi
6:53 AM59 °FSunny.6 mph75%29.91 "Hg10 mi
5:53 AM58 °FClear.8 mph84%29.90 "Hg10 mi
Weather by CustomWeather, © 2015

See weather overviewHow to use our weather pages